{"data":{"norad_id":51774,"epoch":"2026-09-20T04:32:21.347808Z","epoch_age_seconds":79029,"freshness":"FRESH","line1":"1 51774U 22017G   26263.18913597  .00002607  00000+0  88231-4 0  9998","line2":"2 51774  53.1620 179.5113 0001086  92.4436 267.6691 15.34407567252012","mean_motion":15.34407567,"eccentricity":0.0001086,"inclination_deg":53.162,"raan_deg":179.5113,"arg_perigee_deg":92.4436,"mean_anomaly_deg":267.6691,"bstar":8.8231e-5,"rev_number":25201,"period_min":93.84729526689,"perigee_km":461.93783677326,"apogee_km":463.42366238846,"semimajor_km":6840.8177495809,"source":"CELESTRAK","updated_at":"2026-09-20T09:00:39.937129Z"}}